QPF
0.03 0.04 0.03 0.04 0.05 0.07 0.08 0.07 0.06 0.04 0.06 0.08 0.06 0.06 0.08 0.09 0.10 0.09 0.08 0.11 0.11 0.12 0.12 0.10 0.08 0.06 0.05 0.03 0.03 0.03 0.03 0.03 0.03 0.05 0.06 0.08 0.09 0.08
0.05 0.05 0.05 0.05 0.05 0.06 0.08 0.08 0.07 0.06 0.04 0.05 0.06 0.08 0.07 0.06 0.08 0.06 0.07 0.10 0.11 0.12 0.12 0.10 0.08 0.06 0.05 0.03 0.03 0.03 0.04 0.04 0.04 0.04 0.05 0.05 0.05 0.06
0.04 0.05 0.05 0.04 0.04 0.05 0.07 0.07 0.07 0.06 0.04 0.04 0.04 0.04 0.06 0.06 0.06 0.07 0.09 0.08 0.09 0.10 0.10 0.07 0.07 0.05 0.05 0.04 0.04 0.05 0.05 0.04 0.05 0.04 0.04 0.04 0.04 0.05
0.05 0.06 0.05 0.05 0.05 0.05 0.06 0.05 0.05 0.05 0.04 0.05 0.05 0.04 0.07 0.07 0.08 0.10 0.09 0.07 0.08 0.10 0.10 0.09 0.07 0.07 0.06 0.06 0.05 0.04 0.04 0.03 0.02 0.02 0.02 0.02 0.02 0.03
0.06 0.06 0.06 0.06 0.05 0.05 0.05 0.04 0.05 0.06 0.05 0.03 0.04 0.04 0.07 0.10 0.11 0.10 0.09 0.08 0.06 0.07 0.07 0.07 0.08 0.07 0.05 0.05 0.03 0.03 0.03 0.03 0.02 0.02 0.01 0.01 0.01 0.02
0.10 0.09 0.08 0.05 0.05 0.06 0.04 0.03 0.04 0.05 0.04 0.03 0.03 0.03 0.06 0.08 0.09 0.07 0.06 0.06 0.05 0.04 0.04 0.04 0.04 0.04 0.03 0.03 0.03 0.02 0.03 0.03 0.03 0.03 0.03 0.02 0.02 0.02
0.07 0.06 0.05 0.05 0.06 0.05 0.04 0.03 0.03 0.03 0.03 0.03 0.02 0.03 0.04 0.04 0.04 0.03 0.03 0.02 0.02 0.02 0.01 0.01 0.02 0.03 0.04 0.03 0.03 0.02 0.03 0.03 0.02 0.02 0.03 0.03 0.02 0.02
0.04 0.03 0.03 0.04 0.06 0.05 0.04 0.04 0.03 0.03 0.02 0.02 0.03 0.03 0.03 0.03 0.03 0.02 0.01 0.01 0.01 0.01 0.01 0.00 0.01 0.01 0.02 0.02 0.02 0.01 0.01 0.01 0.01 0.01 0.02 0.02 0.02 0.01
0.05 0.04 0.04 0.03 0.04 0.03 0.04 0.04 0.04 0.04 0.03 0.03 0.03 0.03 0.03 0.03 0.02 0.01 0.01 0.01 0.01 0.01 0.01 0.00 0.00 0.01 0.01 0.01 0.01 0.01 0.01 0.01 0.02 0.02 0.02 0.02 0.02 0.02
0.05 0.04 0.03 0.03 0.03 0.03 0.04 0.03 0.03 0.04 0.03 0.03 0.03 0.03 0.03 0.02 0.02 0.01 0.01 0.01 0.01 0.00 0.01 0.01 0.01 0.01 0.01 0.00 0.01 0.01 0.01 0.01 0.01 0.02 0.02 0.03 0.03 0.03
0.04 0.03 0.03 0.03 0.03 0.03 0.03 0.02 0.01 0.02 0.03 0.04 0.04 0.03 0.03 0.02 0.02 0.02 0.01 0.01 0.01 0.00 0.01 0.02 0.02 0.01 0.01 0.01 0.01 0.01 0.01 0.01 0.01 0.02 0.02 0.03 0.03 0.04
0.02 0.02 0.03 0.02 0.03 0.04 0.03 0.01 0.01 0.01 0.03 0.03 0.03 0.03 0.01 0.01 0.01 0.01 0.01 0.01 0.01 0.00 0.00 0.01 0.02 0.03 0.02 0.02 0.01 0.01 0.01 0.01 0.01 0.01 0.01 0.03 0.04 0.04
0.02 0.02 0.02 0.02 0.03 0.03 0.02 0.01 0.01 0.01 0.02 0.02 0.02 0.02 0.01 0.01 0.01 0.01 0.01 0.01 0.01 0.01 0.01 0.02 0.03 0.05 0.05 0.04 0.02 0.02 0.01 0.01 0.01 0.01 0.01 0.02 0.03 0.04
0.02 0.01 0.02 0.02 0.02 0.02 0.02 0.02 0.02 0.02 0.02 0.02 0.02 0.01 0.01 0.01 0.01 0.01 0.01 0.01 0.02 0.03 0.05 0.05 0.05 0.05 0.04 0.04 0.02 0.02 0.02 0.01 0.01 0.01 0.01 0.01 0.01 0.02
0.01 0.01 0.02 0.01 0.01 0.01 0.01 0.02 0.02 0.02 0.02 0.03 0.03 0.03 0.03 0.02 0.02 0.02 0.03 0.03 0.03 0.03 0.04 0.03 0.03 0.03 0.03 0.03 0.02 0.01 0.01 0.01 0.01 0.01 0.01 0.01 0.01 0.01
0.01 0.01 0.01 0.01 0.01 0.01 0.01 0.01 0.02 0.03 0.04 0.05 0.06 0.07 0.07 0.05 0.04 0.03 0.03 0.02 0.02 0.01 0.01 0.01 0.01 0.01 0.01 0.01 0.01 0.01 0.01 0.01 0.01 0.01 0.01 0.02 0.02 0.02
0.02 0.02 0.02 0.03 0.04 0.04 0.03 0.03 0.03 0.03 0.03 0.04 0.04 0.04 0.03 0.02 0.02 0.02 0.02 0.01 0.01 0.00 0.00 0.00 0.01 0.01 0.01 0.01 0.01 0.01 0.01 0.01 0.02 0.02 0.03 0.03 0.03 0.03
0.02 0.02 0.03 0.04 0.04 0.03 0.02 0.02 0.02 0.02 0.02 0.03 0.03 0.02 0.02 0.01 0.01 0.01 0.01 0.01 0.00 0.01 0.01 0.01 0.01 0.01 0.01 0.01 0.01 0.01 0.01 0.01 0.01 0.02 0.02 0.02 0.02 0.02
0.01 0.01 0.01 0.02 0.02 0.01 0.02 0.02 0.02 0.02 0.02 0.02 0.02 0.02 0.01 0.01 0.01 0.01 0.01 0.01 0.01 0.01 0.01 0.02 0.01 0.01 0.01 0.01 0.01 0.01 0.00 0.00 0.01 0.01 0.01 0.02 0.03 0.03
0.01 0.01 0.01 0.02 0.02 0.02 0.02 0.02 0.01 0.01 0.01 0.01 0.01 0.01 0.02 0.02 0.02 0.02 0.02 0.02 0.02 0.01 0.01 0.01 0.02 0.01 0.01 0.01 0.01 0.01 0.01 0.01 0.01 0.01 0.01 0.01 0.01 0.01
0.00 0.01 0.01 0.02 0.02 0.01 0.01 0.01 0.01 0.01 0.01 0.01 0.01 0.01 0.02 0.03 0.03 0.03 0.03 0.03 0.03 0.03 0.02 0.02 0.02 0.02 0.02 0.02 0.02 0.01 0.01 0.01 0.01 0.01 0.01 0.01 0.01 0.01
0.01 0.01 0.01 0.01 0.01 0.01 0.01 0.01 0.01 0.01 0.01 0.01 0.01 0.01 0.01 0.01 0.02 0.03 0.03 0.04 0.04 0.03 0.03 0.02 0.02 0.02 0.02 0.02 0.02 0.02 0.02 0.02 0.02 0.01 0.01 0.01 0.01 0.01
0.01 0.01 0.01 0.01 0.01 0.01 0.01 0.01 0.01 0.01 0.01 0.01 0.01 0.01 0.01 0.01 0.01 0.02 0.02 0.03 0.04 0.04 0.04 0.04 0.03 0.03 0.02 0.02 0.01 0.01 0.01 0.01 0.01 0.01 0.01 0.01 0.01 0.01
MSLP
1014.65 1015.00 1015.37 1015.76 1016.15 1016.54 1016.93 1017.30 1017.65 1017.99 1018.29 1018.57 1018.80 1018.99 1019.12 1019.20 1019.25 1019.28 1019.32 1019.38 1019.49 1019.65 1019.86 1020.10 1020.35 1020.57 1020.75 1020.86 1020.92 1020.91 1020.87 1020.80 1020.74 1020.69 1020.66 1020.63 1020.60 1020.54
1014.32 1014.65 1014.99 1015.33 1015.69 1016.05 1016.44 1016.84 1017.27 1017.71 1018.16 1018.59 1018.98 1019.32 1019.58 1019.77 1019.90 1019.98 1020.04 1020.12 1020.23 1020.38 1020.59 1020.83 1021.08 1021.32 1021.52 1021.65 1021.72 1021.73 1021.70 1021.65 1021.59 1021.54 1021.49 1021.46 1021.40 1021.33
1014.13 1014.44 1014.73 1015.02 1015.32 1015.65 1016.02 1016.44 1016.93 1017.46 1018.03 1018.61 1019.15 1019.64 1020.04 1020.35 1020.57 1020.72 1020.82 1020.92 1021.04 1021.19 1021.39 1021.62 1021.86 1022.08 1022.27 1022.40 1022.47 1022.48 1022.44 1022.39 1022.33 1022.28 1022.23 1022.19 1022.13 1022.04
1014.11 1014.40 1014.65 1014.89 1015.13 1015.42 1015.76 1016.19 1016.71 1017.31 1017.98 1018.67 1019.34 1019.96 1020.48 1020.90 1021.21 1021.43 1021.59 1021.71 1021.84 1022.00 1022.18 1022.38 1022.60 1022.79 1022.95 1023.05 1023.08 1023.07 1023.02 1022.95 1022.88 1022.82 1022.78 1022.74 1022.67 1022.58
1014.30 1014.56 1014.78 1014.98 1015.18 1015.42 1015.74 1016.16 1016.69 1017.33 1018.05 1018.81 1019.57 1020.27 1020.89 1021.39 1021.78 1022.07 1022.28 1022.44 1022.59 1022.74 1022.91 1023.09 1023.27 1023.42 1023.52 1023.57 1023.55 1023.49 1023.40 1023.30 1023.22 1023.15 1023.10 1023.06 1023.00 1022.90
1014.66 1014.91 1015.11 1015.28 1015.45 1015.67 1015.97 1016.38 1016.90 1017.54 1018.27 1019.06 1019.85 1020.59 1021.26 1021.81 1022.25 1022.59 1022.85 1023.05 1023.22 1023.38 1023.55 1023.70 1023.84 1023.94 1023.99 1023.97 1023.90 1023.78 1023.63 1023.49 1023.37 1023.28 1023.22 1023.17 1023.11 1023.01
1015.17 1015.42 1015.61 1015.78 1015.95 1016.15 1016.44 1016.82 1017.32 1017.93 1018.64 1019.40 1020.17 1020.91 1021.57 1022.15 1022.62 1022.99 1023.28 1023.52 1023.72 1023.90 1024.07 1024.22 1024.33 1024.39 1024.38 1024.31 1024.16 1023.98 1023.78 1023.58 1023.42 1023.29 1023.21 1023.14 1023.08 1022.97
1015.78 1016.03 1016.23 1016.41 1016.59 1016.81 1017.08 1017.45 1017.91 1018.47 1019.12 1019.82 1020.53 1021.22 1021.85 1022.40 1022.87 1023.26 1023.58 1023.85 1024.09 1024.31 1024.49 1024.65 1024.75 1024.78 1024.73 1024.61 1024.41 1024.17 1023.91 1023.66 1023.45 1023.28 1023.16 1023.07 1022.98 1022.86
1016.43 1016.68 1016.91 1017.12 1017.33 1017.56 1017.84 1018.18 1018.60 1019.10 1019.67 1020.28 1020.91 1021.52 1022.09 1022.60 1023.05 1023.44 1023.78 1024.08 1024.36 1024.61 1024.83 1025.00 1025.10 1025.13 1025.07 1024.91 1024.68 1024.40 1024.09 1023.80 1023.54 1023.33 1023.16 1023.03 1022.90 1022.75
1017.08 1017.35 1017.60 1017.85 1018.09 1018.35 1018.63 1018.95 1019.33 1019.77 1020.25 1020.77 1021.30 1021.81 1022.31 1022.76 1023.18 1023.56 1023.90 1024.23 1024.54 1024.83 1025.08 1025.28 1025.41 1025.45 1025.39 1025.23 1024.99 1024.69 1024.35 1024.02 1023.72 1023.46 1023.25 1023.07 1022.89 1022.70
1017.70 1017.99 1018.27 1018.55 1018.83 1019.11 1019.40 1019.71 1020.05 1020.43 1020.83 1021.26 1021.69 1022.12 1022.53 1022.93 1023.30 1023.66 1024.01 1024.35 1024.68 1024.99 1025.27 1025.50 1025.66 1025.73 1025.69 1025.55 1025.31 1025.01 1024.67 1024.32 1023.99 1023.69 1023.42 1023.19 1022.96 1022.72
1018.30 1018.60 1018.91 1019.22 1019.53 1019.83 1020.12 1020.42 1020.73 1021.05 1021.39 1021.74 1022.10 1022.45 1022.80 1023.14 1023.47 1023.80 1024.13 1024.47 1024.80 1025.13 1025.43 1025.68 1025.86 1025.95 1025.94 1025.82 1025.61 1025.33 1024.99 1024.64 1024.29 1023.95 1023.65 1023.36 1023.08 1022.79
1018.87 1019.18 1019.51 1019.85 1020.17 1020.48 1020.78 1021.07 1021.35 1021.64 1021.93 1022.23 1022.52 1022.82 1023.11 1023.41 1023.70 1024.00 1024.30 1024.62 1024.93 1025.25 1025.54 1025.79 1025.98 1026.09 1026.11 1026.02 1025.84 1025.58 1025.27 1024.92 1024.56 1024.20 1023.85 1023.52 1023.19 1022.84
1019.42 1019.75 1020.09 1020.43 1020.76 1021.08 1021.37 1021.65 1021.92 1022.18 1022.44 1022.71 1022.97 1023.23 1023.49 1023.74 1024.00 1024.26 1024.53 1024.80 1025.09 1025.37 1025.63 1025.86 1026.04 1026.15 1026.18 1026.11 1025.96 1025.73 1025.43 1025.10 1024.73 1024.36 1023.98 1023.61 1023.23 1022.84
1019.96 1020.29 1020.63 1020.98 1021.30 1021.61 1021.89 1022.16 1022.42 1022.67 1022.92 1023.17 1023.41 1023.66 1023.89 1024.13 1024.35 1024.57 1024.79 1025.02 1025.25 1025.48 1025.69 1025.88 1026.03 1026.12 1026.15 1026.09 1025.95 1025.74 1025.47 1025.14 1024.77 1024.39 1023.99 1023.57 1023.16 1022.73
1020.45 1020.79 1021.13 1021.46 1021.77 1022.06 1022.33 1022.58 1022.83 1023.08 1023.33 1023.58 1023.83 1024.07 1024.30 1024.51 1024.71 1024.90 1025.07 1025.24 1025.41 1025.57 1025.72 1025.86 1025.96 1026.02 1026.02 1025.96 1025.83 1025.62 1025.36 1025.03 1024.67 1024.27 1023.85 1023.41 1022.95 1022.49
1020.87 1021.21 1021.53 1021.84 1022.13 1022.40 1022.65 1022.89 1023.14 1023.39 1023.65 1023.91 1024.17 1024.42 1024.65 1024.85 1025.03 1025.19 1025.32 1025.43 1025.53 1025.63 1025.71 1025.78 1025.83 1025.85 1025.82 1025.74 1025.60 1025.39 1025.13 1024.80 1024.43 1024.02 1023.58 1023.11 1022.63 1022.14
1021.18 1021.51 1021.81 1022.09 1022.35 1022.59 1022.82 1023.06 1023.30 1023.56 1023.83 1024.10 1024.38 1024.64 1024.88 1025.08 1025.25 1025.38 1025.48 1025.55 1025.59 1025.63 1025.66 1025.67 1025.67 1025.64 1025.58 1025.47 1025.31 1025.09 1024.81 1024.48 1024.10 1023.67 1023.21 1022.73 1022.22 1021.71
1021.33 1021.64 1021.91 1022.17 1022.39 1022.61 1022.83 1023.05 1023.30 1023.56 1023.85 1024.14 1024.43 1024.71 1024.96 1025.17 1025.33 1025.44 1025.51 1025.55 1025.57 1025.56 1025.54 1025.51 1025.47 1025.41 1025.31 1025.18 1024.99 1024.76 1024.46 1024.11 1023.72 1023.28 1022.80 1022.30 1021.79 1021.26
1021.29 1021.57 1021.82 1022.05 1022.25 1022.45 1022.65 1022.88 1023.13 1023.41 1023.71 1024.02 1024.33 1024.62 1024.87 1025.09 1025.25 1025.36 1025.42 1025.44 1025.44 1025.41 1025.37 1025.32 1025.25 1025.16 1025.04 1024.88 1024.67 1024.41 1024.10 1023.74 1023.33 1022.88 1022.40 1021.89 1021.37 1020.84
1021.05 1021.31 1021.53 1021.74 1021.92 1022.11 1022.32 1022.55 1022.81 1023.10 1023.42 1023.75 1024.07 1024.38 1024.64 1024.86 1025.03 1025.14 1025.21 1025.23 1025.22 1025.19 1025.15 1025.08 1025.00 1024.90 1024.76 1024.59 1024.36 1024.09 1023.76 1023.38 1022.96 1022.51 1022.03 1021.53 1021.01 1020.49
1020.62 1020.85 1021.06 1021.26 1021.44 1021.64 1021.86 1022.10 1022.39 1022.70 1023.04 1023.38 1023.72 1024.03 1024.31 1024.53 1024.71 1024.83 1024.90 1024.94 1024.94 1024.92 1024.88 1024.82 1024.74 1024.64 1024.50 1024.31 1024.07 1023.79 1023.45 1023.07 1022.64 1022.19 1021.72 1021.23 1020.73 1020.23
1020.02 1020.25 1020.46 1020.65 1020.85 1021.07 1021.32 1021.60 1021.91 1022.25 1022.61 1022.98 1023.32 1023.65 1023.93 1024.16 1024.34 1024.47 1024.55 1024.60 1024.62 1024.62 1024.60 1024.55 1024.48 1024.38 1024.23 1024.04 1023.80 1023.51 1023.17 1022.78 1022.37 1021.92 1021.47 1021.00 1020.53 1020.06
Thickness
5747 5746 5744 5744 5743 5742 5739 5735 5727 5720 5720 5724 5725 5727 5726 5724 5723 5721 5720 5718 5717 5714 5712 5710 5707 5705 5703 5702 5700 5698 5696 5694 5693 5691 5690 5689 5687 5686
5746 5744 5743 5743 5742 5741 5739 5736 5733 5726 5721 5723 5723 5723 5722 5721 5718 5717 5715 5714 5712 5710 5707 5705 5703 5700 5698 5696 5694 5692 5690 5689 5688 5686 5684 5683 5681 5680
5744 5742 5741 5741 5739 5738 5737 5735 5732 5728 5721 5720 5720 5719 5718 5716 5713 5711 5710 5708 5706 5704 5702 5699 5697 5694 5692 5690 5688 5686 5684 5683 5681 5680 5678 5676 5675 5673
5740 5739 5738 5739 5737 5736 5734 5732 5730 5728 5722 5716 5714 5714 5712 5710 5708 5705 5703 5702 5700 5697 5695 5693 5690 5688 5686 5684 5681 5679 5677 5676 5674 5672 5670 5669 5667 5665
5738 5737 5736 5735 5733 5732 5731 5729 5727 5725 5721 5715 5711 5709 5707 5704 5701 5698 5696 5695 5693 5690 5688 5686 5683 5681 5679 5676 5674 5672 5670 5668 5666 5664 5662 5660 5658 5656
5736 5735 5733 5732 5730 5729 5727 5724 5722 5718 5715 5711 5706 5703 5701 5698 5695 5691 5688 5687 5685 5684 5681 5679 5676 5674 5671 5669 5667 5665 5663 5660 5658 5656 5653 5651 5649 5647
5731 5730 5730 5729 5728 5726 5723 5719 5716 5712 5708 5704 5700 5697 5694 5691 5688 5686 5682 5680 5678 5676 5673 5671 5668 5666 5663 5661 5659 5656 5654 5652 5649 5647 5644 5642 5639 5637
5726 5725 5725 5723 5723 5721 5718 5716 5713 5708 5702 5699 5695 5691 5688 5686 5684 5681 5677 5673 5669 5668 5665 5662 5660 5657 5655 5653 5651 5648 5646 5643 5641 5638 5635 5633 5630 5627
5722 5720 5719 5717 5716 5714 5711 5709 5706 5704 5702 5697 5691 5687 5684 5683 5679 5675 5672 5668 5664 5662 5658 5653 5651 5647 5646 5643 5642 5639 5637 5634 5631 5629 5626 5622 5619 5616
5716 5714 5712 5710 5709 5707 5705 5701 5698 5696 5695 5692 5689 5686 5683 5680 5677 5673 5668 5662 5659 5656 5653 5645 5642 5638 5637 5635 5632 5630 5627 5624 5622 5619 5615 5611 5608 5604
5710 5708 5706 5704 5703 5701 5698 5694 5691 5689 5688 5686 5683 5680 5677 5674 5671 5667 5661 5655 5649 5646 5644 5639 5634 5630 5628 5625 5623 5620 5617 5614 5611 5608 5604 5601 5597 5593
5702 5701 5700 5698 5696 5694 5690 5687 5683 5680 5679 5678 5675 5672 5669 5667 5664 5660 5656 5649 5643 5637 5636 5631 5626 5622 5617 5615 5613 5610 5607 5604 5600 5597 5594 5590 5586 5582
5695 5692 5691 5690 5688 5686 5684 5681 5678 5675 5672 5669 5666 5663 5660 5657 5655 5652 5649 5645 5638 5632 5630 5625 5619 5614 5609 5605 5602 5600 5597 5593 5590 5586 5583 5580 5576 5572
5688 5686 5684 5682 5680 5678 5676 5673 5671 5668 5665 5661 5657 5653 5651 5648 5646 5643 5640 5637 5634 5629 5625 5620 5613 5608 5601 5595 5592 5589 5587 5583 5580 5576 5573 5569 5565 5561
5682 5680 5677 5675 5673 5670 5668 5666 5663 5660 5656 5651 5647 5645 5643 5640 5637 5634 5631 5628 5625 5621 5616 5612 5607 5601 5595 5589 5584 5579 5576 5573 5569 5566 5562 5558 5554 5550
5674 5671 5669 5667 5664 5662 5660 5657 5654 5651 5647 5643 5639 5637 5634 5631 5628 5625 5620 5616 5611 5608 5606 5603 5599 5593 5587 5582 5576 5570 5567 5563 5560 5556 5552 5548 5545 5540
5666 5662 5659 5657 5654 5651 5649 5647 5644 5642 5638 5634 5631 5628 5624 5621 5618 5615 5610 5606 5601 5597 5593 5591 5588 5584 5580 5574 5567 5563 5559 5555 5551 5547 5542 5538 5535 5531
5658 5653 5650 5647 5644 5641 5639 5637 5635 5632 5629 5626 5622 5619 5615 5612 5608 5604 5601 5596 5591 5587 5583 5580 5577 5572 5568 5563 5560 5554 5549 5545 5541 5537 5533 5527 5524 5522
5650 5646 5642 5639 5636 5634 5631 5628 5626 5623 5621 5618 5614 5610 5607 5603 5599 5595 5591 5587 5582 5578 5574 5570 5566 5561 5555 5551 5549 5546 5540 5536 5532 5528 5523 5518 5514 5512
5643 5640 5636 5633 5630 5627 5624 5621 5618 5615 5612 5608 5605 5602 5598 5595 5591 5587 5583 5578 5574 5569 5564 5561 5557 5552 5547 5542 5538 5536 5533 5528 5523 5518 5514 5510 5506 5503
5636 5633 5631 5628 5625 5621 5618 5614 5611 5607 5604 5600 5597 5594 5591 5587 5583 5579 5575 5571 5566 5561 5556 5552 5550 5547 5541 5535 5529 5525 5523 5520 5516 5511 5506 5500 5495 5491
5629 5626 5624 5621 5618 5615 5611 5607 5603 5599 5596 5592 5589 5586 5582 5579 5575 5571 5567 5563 5558 5554 5550 5546 5542 5537 5531 5525 5520 5516 5513 5511 5508 5504 5499 5494 5488 5483
5622 5619 5617 5614 5611 5607 5604 5600 5596 5592 5588 5584 5581 5578 5575 5571 5568 5564 5560 5555 5550 5546 5541 5537 5532 5527 5522 5517 5512 5508 5505 5501 5497 5493 5490 5488 5484 5480